[[{"header":{"parameterUnit":"m.s-1","parameterCategory":1,"la1":30.2991,"la2":30.254,"lo1":-89.0895,"lo2":-89.0444,"dy":0.0017,"dx":0.0017,"nx":28,"ny":28,"refTime":"2025-03-01T03:00:00:Z","depth":0,"parameterNumber":2,"parameterNumberName":"U-component_of_WINDS"},"data":[0,0,0,0,0,0,0,0,0,0,0,0,0,0,0,0,0,0,0,0,0,0,0,0,0,0,0,0,0,0,0,0,0,0,0,0,0,0,0,0,0,0,0,0,0,0,0,0,0,0,0,0,0,0,0,0,0,0,-0.4023,-0.4023,0,-0.4074,-0.4075,-0.4075,-0.4062,-0.4061,-0.406,-0.4059,-0.4114,-0.4117,-0.4119,0,0,0,0,0,0,0,0,0,0,0,0,0,-0.3916,-0.3918,-0.4023,-0.4023,-0.4024,-0.4074,-0.4075,-0.4076,-0.4062,-0.4061,-0.4059,-0.4058,-0.4114,-0.4117,-0.4119,0,0,0,0,0,0,0,0,0,0,0,0,0,-0.3964,-0.3919,-0.4023,-0.4023,-0.4024,-0.4074,-0.4075,-0.4076,-0.4062,-0.406,-0.4059,-0.4057,-0.4113,-0.4116,-0.412,-0.4174,0,0,-0.4131,-0.4133,0,0,0,0,0,0,0,0,-0.3962,-0.3968,-0.4022,-0.4023,-0.4024,-0.406,-0.4058,-0.4109,-0.4062,-0.4048,-0.4059,-0.4057,-0.4098,-0.4103,-0.4116,-0.4176,-0.4179,-0.4131,-0.4134,-0.4135,-0.4136,0,0,0,0,0,0,0,-0.3958,-0.3966,-0.4043,-0.4023,-0.4024,-0.4022,-0.4027,-0.4067,-0.4081,-0.4049,-0.4048,-0.4054,-0.4098,-0.4112,-0.4117,-0.418,-0.4131,-0.4135,-0.4137,-0.4138,-0.4289,-0.429,0,0,0,0,0,0,-0.3954,-0.3963,-0.4042,-0.4045,-0.3988,-0.4025,-0.4031,-0.405,-0.408,-0.4083,-0.4055,-0.4053,-0.4107,-0.4113,-0.4119,-0.4185,-0.4135,-0.4139,-0.4141,-0.4287,-0.4289,-0.4291,0,0,0,0,0,0,-0.3952,-0.3961,-0.4039,-0.4004,-0.4014,-0.4029,-0.405,-0.4052,-0.4066,-0.4085,-0.4088,-0.4067,-0.4106,-0.4114,-0.416,-0.4187,-0.414,-0.4144,-0.4285,-0.4288,-0.429,-0.4317,0,0,0,0,0,0,-0.3949,-0.396,-0.398,-0.4004,-0.4016,-0.4079,-0.4052,-0.4054,-0.4072,-0.407,-0.4097,-0.41,-0.4105,-0.4155,-0.4164,-0.4191,-0.4147,-0.4282,-0.4286,-0.4289,-0.4314,-0.432,-0.4326,0,0,0,0,0,-0.3945,-0.3986,-0.3981,-0.3991,-0.404,-0.4081,-0.4087,-0.4091,-0.4074,-0.4095,-0.4107,-0.4099,-0.4182,-0.416,-0.417,-0.4198,-0.4281,-0.4285,-0.4289,-0.4311,-0.4319,-0.4326,0,0,0,0,0,0,-0.3966,-0.3989,-0.3984,-0.4034,-0.4055,-0.4078,-0.4104,-0.4099,-0.4126,-0.4123,-0.4128,-0.4134,-0.4182,-0.4195,-0.4169,-0.4253,-0.4229,-0.4235,-0.4243,-0.425,-0.4256,-0.4253,-0.415,0,0,0,0,0,-0.3976,-0.4005,-0.4025,-0.4067,-0.4078,-0.4089,-0.4107,-0.4108,-0.4131,-0.414,-0.4156,-0.4179,-0.421,-0.4231,-0.4261,-0.4315,-0.4322,-0.434,-0.4346,-0.4351,-0.4357,-0.4388,-0.4396,-0.4304,-0.4304,-0.4304,0,0,-0.3998,-0.4014,-0.4033,-0.4072,-0.4088,-0.412,-0.4097,-0.4132,-0.4156,-0.4146,-0.4191,-0.4203,-0.4229,-0.4281,-0.4304,-0.4293,-0.4383,-0.4356,-0.436,-0.4363,-0.4393,-0.4402,-0.4409,-0.4307,-0.4306,-0.4306,0,0,-0.4054,-0.4069,-0.4106,-0.4123,-0.4148,-0.4156,-0.4165,-0.4188,-0.4196,-0.4241,-0.4234,-0.4264,-0.4317,-0.4336,-0.4353,-0.4417,-0.4411,-0.4427,-0.4458,-0.4489,-0.4496,-0.4502,-0.4527,-0.4535,-0.4432,-0.4432,-0.4432,0,-0.4078,-0.4125,-0.4126,-0.4161,-0.418,-0.4171,-0.421,-0.4226,-0.426,-0.4274,-0.426,-0.4328,-0.4345,-0.4401,-0.4416,-0.443,-0.4441,-0.4424,-0.4495,-0.4501,-0.4507,-0.453,-0.4539,-0.4434,-0.4434,-0.4434,-0.4433,0,-0.4154,-0.4186,-0.4214,-0.4246,-0.4267,-0.4304,-0.4312,-0.4334,-0.4333,-0.4342,-0.4389,-0.4409,-0.4443,-0.4456,-0.4456,-0.4513,-0.4505,-0.4493,-0.447,-0.4518,-0.454,-0.4548,-0.4437,-0.4436,-0.4435,-0.4435,0,0,-0.4225,-0.4258,-0.4268,-0.4283,-0.431,-0.4336,-0.4373,-0.4405,-0.4424,-0.4448,-0.448,-0.4525,-0.4515,-0.4534,-0.4536,-0.4562,-0.4613,-0.4547,-0.4548,-0.456,-0.4678,-0.4688,-0.4698,-0.4609,-0.4611,-0.4612,-0.4677,0,-0.4284,-0.4348,-0.4351,-0.441,-0.4441,-0.4433,-0.4466,-0.4487,-0.4496,-0.4525,-0.4536,-0.4568,-0.4551,-0.4563,-0.4588,-0.4601,-0.4637,-0.4597,-0.464,-0.4642,-0.4635,-0.4709,-0.472,-0.478,-0.4685,-0.4686,-0.4687,0,-0.4362,-0.4388,-0.445,-0.4473,-0.4486,-0.4515,-0.4546,-0.4572,-0.4597,-0.4602,-0.4623,-0.4622,-0.4661,-0.4635,-0.469,-0.4662,-0.468,-0.4689,-0.4692,-0.4697,-0.4668,-0.4718,-0.4799,-0.4808,-0.4701,-0.47,-0.4699,0,-0.441,-0.4459,-0.4503,-0.4516,-0.4544,-0.4565,-0.4578,-0.46,-0.462,-0.4647,-0.466,-0.4691,-0.4709,-0.4734,-0.4741,-0.4722,-0.4796,-0.4771,-0.4803,-0.4803,-0.482,-0.4819,-0.4906,-0.483,-0.483,-0.4829,-0.4829,0,-0.4476,-0.4515,-0.4525,-0.4552,-0.4595,-0.4598,-0.4641,-0.4653,-0.4673,-0.4703,-0.4698,-0.4727,-0.4734,-0.4765,-0.4771,-0.4816,-0.4824,-0.483,-0.4832,-0.4831,-0.4831,-0.4844,-0.484,-0.4832,-0.4831,-0.4831,-0.483,0,-0.4537,-0.4545,-0.4592,-0.4615,-0.4621,-0.4652,-0.4672,-0.4699,-0.4708,-0.4746,-0.4755,-0.477,-0.4805,-0.4815,-0.4857,-0.4861,-0.4915,-0.4912,-0.4907,-0.4907,-0.4939,-0.4937,-0.5039,-0.5053,-0.4966,-0.4967,-0.4968,0,-0.4579,-0.4609,-0.4634,-0.4654,-0.4667,-0.4699,-0.4719,-0.4723,-0.4744,-0.4774,-0.4798,-0.4832,-0.486,-0.4918,-0.4933,-0.4966,-0.4964,-0.4998,-0.4969,-0.4968,-0.4966,-0.4965,-0.4968,-0.5004,-0.5004,-0.5005,-0.5006,0,-0.4654,-0.4657,-0.4685,-0.4716,-0.4739,-0.4763,-0.4787,-0.4803,-0.4811,-0.4835,-0.4871,-0.4893,-0.4936,-0.4971,-0.5005,-0.5019,-0.5015,-0.5014,-0.5024,-0.5025,-0.5021,-0.5025,-0.4923,-0.5012,-0.5012,-0.5011,-0.5011,-0.5011,-0.4708,-0.4734,-0.4757,-0.4789,-0.4806,-0.4828,-0.4855,-0.4867,-0.4896,-0.4931,-0.4932,-0.4972,-0.4996,-0.504,-0.5056,-0.5088,-0.5078,-0.5091,-0.5095,-0.5099,-0.5102,-0.5015,-0.5094,-0.5094,-0.5094,-0.5094,-0.5093,0,-0.4784,-0.4798,-0.4827,-0.486,-0.4885,-0.4877,-0.4903,-0.4925,-0.496,-0.4982,-0.501,-0.5052,-0.5086,-0.5103,-0.5137,-0.5159,-0.5158,-0.5168,-0.5167,-0.5171,-0.5108,-0.5097,-0.5169,-0.5169,-0.5169,-0.5169,-0.5169,-0.5169,-0.4827,-0.4871,-0.4876,-0.493,-0.4943,-0.4981,-0.4997,-0.5017,-0.5035,-0.5082,-0.511,-0.5121,-0.5142,-0.5178,-0.5209,-0.5213,-0.5227,-0.5238,-0.5242,-0.5183,-0.5175,-0.5168,-0.5158,-0.5241,-0.5241,-0.5302,-0.5303,-0.5303]},{"header":{"parameterUnit":"m.s-1","parameterCategory":1,"la1":30.2991,"la2":30.254,"lo1":-89.0895,"lo2":-89.0444,"dy":0.0017,"dx":0.0017,"nx":28,"ny":28,"refTime":"2025-03-01T03:00:00:Z","depth":0,"parameterNumber":3,"parameterNumberName":"V-component_of_WINDS"},"data":[0,0,0,0,0,0,0,0,0,0,0,0,0,0,0,0,0,0,0,0,0,0,0,0,0,0,0,0,0,0,0,0,0,0,0,0,0,0,0,0,0,0,0,0,0,0,0,0,0,0,0,0,0,0,0,0,0,0,-3.6672,-3.6672,0,-3.6701,-3.6702,-3.6702,-3.6668,-3.6666,-3.6665,-3.6664,-3.6695,-3.6697,-3.6699,0,0,0,0,0,0,0,0,0,0,0,0,0,-3.6586,-3.6588,-3.6672,-3.6672,-3.6672,-3.6701,-3.6702,-3.6702,-3.6668,-3.6666,-3.6665,-3.6663,-3.6695,-3.6697,-3.6699,0,0,0,0,0,0,0,0,0,0,0,0,0,-3.6621,-3.6589,-3.6671,-3.6659,-3.6658,-3.6701,-3.6702,-3.6702,-3.6668,-3.6666,-3.6664,-3.6662,-3.6694,-3.6697,-3.67,-3.6758,0,0,-3.6709,-3.671,0,0,0,0,0,0,0,0,-3.6619,-3.6624,-3.666,-3.666,-3.6659,-3.6679,-3.6683,-3.6721,-3.6669,-3.6664,-3.6664,-3.6661,-3.6691,-3.6694,-3.6704,-3.6759,-3.676,-3.6709,-3.6711,-3.6713,-3.6713,0,0,0,0,0,0,0,-3.6616,-3.6622,-3.6683,-3.6661,-3.666,-3.6652,-3.6655,-3.669,-3.6688,-3.6664,-3.6662,-3.6666,-3.6691,-3.6702,-3.6705,-3.6761,-3.6709,-3.6712,-3.6714,-3.6715,-3.6866,-3.6868,0,0,0,0,0,0,-3.6615,-3.662,-3.6682,-3.6684,-3.6633,-3.6655,-3.6658,-3.6674,-3.6688,-3.6688,-3.6668,-3.6664,-3.6697,-3.6701,-3.6706,-3.6776,-3.6713,-3.6715,-3.6717,-3.6864,-3.6867,-3.6869,0,0,0,0,0,0,-3.6614,-3.6621,-3.6681,-3.6652,-3.6659,-3.6659,-3.6677,-3.6676,-3.6687,-3.669,-3.669,-3.6679,-3.6696,-3.6702,-3.6745,-3.6776,-3.6717,-3.672,-3.6861,-3.6865,-3.6868,-3.6915,0,0,0,0,0,0,-3.6611,-3.6621,-3.6642,-3.6652,-3.666,-3.672,-3.6679,-3.6678,-3.6692,-3.6688,-3.6701,-3.6701,-3.6695,-3.6741,-3.6748,-3.6779,-3.6722,-3.6859,-3.6863,-3.6867,-3.6911,-3.692,-3.6927,0,0,0,0,0,-3.6608,-3.6654,-3.6643,-3.6651,-3.6687,-3.6722,-3.6726,-3.6718,-3.6695,-3.6717,-3.6719,-3.6701,-3.6771,-3.6746,-3.6754,-3.6786,-3.6857,-3.6862,-3.6866,-3.6907,-3.6918,-3.6927,0,0,0,0,0,0,-3.6647,-3.6655,-3.6643,-3.6694,-3.6707,-3.6716,-3.6743,-3.6729,-3.675,-3.6745,-3.6734,-3.6737,-3.6784,-3.6789,-3.676,-3.6844,-3.681,-3.6817,-3.6839,-3.6849,-3.6857,-3.6855,-3.6725,0,0,0,0,0,-3.6662,-3.6689,-3.6694,-3.6738,-3.6746,-3.6743,-3.6758,-3.675,-3.6764,-3.677,-3.6775,-3.6789,-3.6815,-3.6832,-3.6856,-3.6911,-3.6914,-3.6938,-3.6946,-3.6952,-3.6959,-3.699,-3.7001,-3.6885,-3.6885,-3.6885,0,0,-3.6692,-3.67,-3.6717,-3.6746,-3.6756,-3.6785,-3.6748,-3.678,-3.6802,-3.6774,-3.6816,-3.6821,-3.6836,-3.6887,-3.6909,-3.6893,-3.6991,-3.6959,-3.6964,-3.6967,-3.6996,-3.7007,-3.7017,-3.6888,-3.6888,-3.6887,0,0,-3.6762,-3.677,-3.6808,-3.6819,-3.6834,-3.6832,-3.6842,-3.6853,-3.6855,-3.6897,-3.6877,-3.6903,-3.6947,-3.6959,-3.6971,-3.7047,-3.7031,-3.7055,-3.7098,-3.7128,-3.7138,-3.7146,-3.7174,-3.7184,-3.7061,-3.7061,-3.7061,0,-3.6798,-3.684,-3.683,-3.6863,-3.6877,-3.6854,-3.6894,-3.6904,-3.6926,-3.6937,-3.6918,-3.6973,-3.6982,-3.7036,-3.7054,-3.7064,-3.7075,-3.7054,-3.7137,-3.7145,-3.7152,-3.7179,-3.719,-3.7064,-3.7063,-3.7063,-3.7063,0,-3.6884,-3.6914,-3.6943,-3.6966,-3.6983,-3.7019,-3.7015,-3.7033,-3.7024,-3.7025,-3.7069,-3.7078,-3.7104,-3.7116,-3.7107,-3.7169,-3.7159,-3.7138,-3.7105,-3.7166,-3.7192,-3.7202,-3.7068,-3.7067,-3.7066,-3.7065,0,0,-3.698,-3.6997,-3.7008,-3.7018,-3.7033,-3.7057,-3.7092,-3.7117,-3.7134,-3.715,-3.7181,-3.7219,-3.7201,-3.7215,-3.7207,-3.7234,-3.7296,-3.7211,-3.7211,-3.7227,-3.7366,-3.7382,-3.7394,-3.7285,-3.7287,-3.7288,-3.7365,0,-3.7051,-3.7113,-3.7105,-3.7164,-3.7193,-3.7172,-3.7203,-3.7216,-3.7218,-3.7242,-3.7244,-3.7272,-3.7245,-3.7254,-3.7279,-3.7283,-3.7323,-3.7277,-3.7314,-3.7316,-3.7312,-3.7407,-3.7423,-3.7495,-3.7374,-3.7376,-3.7377,0,-3.7142,-3.7163,-3.7225,-3.7237,-3.7249,-3.7277,-3.73,-3.7324,-3.7339,-3.7338,-3.7354,-3.7342,-3.7379,-3.7344,-3.7395,-3.7364,-3.7379,-3.7383,-3.7386,-3.739,-3.7351,-3.7414,-3.7517,-3.7529,-3.7392,-3.7391,-3.739,0,-3.7208,-3.725,-3.7293,-3.7303,-3.7318,-3.7339,-3.7346,-3.7359,-3.7375,-3.7395,-3.7406,-3.743,-3.7444,-3.7464,-3.7459,-3.7434,-3.7512,-3.7476,-3.7514,-3.7514,-3.7532,-3.7531,-3.764,-3.7539,-3.7539,-3.7539,-3.7539,0,-3.7289,-3.7328,-3.7323,-3.735,-3.7394,-3.7385,-3.7428,-3.7433,-3.7445,-3.7473,-3.7456,-3.7482,-3.7474,-3.7501,-3.7498,-3.7541,-3.7547,-3.7549,-3.7547,-3.7551,-3.7551,-3.7561,-3.7556,-3.7542,-3.7541,-3.7541,-3.754,0,-3.7369,-3.7367,-3.7413,-3.7424,-3.7428,-3.746,-3.7469,-3.7495,-3.7495,-3.7531,-3.7539,-3.754,-3.757,-3.7568,-3.7602,-3.7599,-3.7654,-3.7646,-3.7649,-3.7648,-3.7686,-3.7683,-3.7806,-3.7822,-3.771,-3.7711,-3.7712,0,-3.7422,-3.7452,-3.7466,-3.7483,-3.7492,-3.752,-3.7537,-3.753,-3.7548,-3.7568,-3.7591,-3.762,-3.7643,-3.7693,-3.7697,-3.7723,-3.7717,-3.7758,-3.7721,-3.7724,-3.7719,-3.7718,-3.7722,-3.7766,-3.7767,-3.7768,-3.7769,0,-3.7515,-3.7513,-3.7538,-3.7563,-3.7583,-3.7602,-3.7619,-3.7635,-3.7629,-3.7651,-3.7681,-3.7699,-3.7734,-3.7764,-3.7789,-3.7797,-3.7783,-3.7781,-3.7791,-3.7795,-3.7796,-3.7798,-3.7671,-3.7778,-3.7777,-3.7777,-3.7776,-3.7776,-3.7584,-3.7611,-3.7625,-3.7654,-3.7666,-3.7683,-3.7708,-3.7712,-3.7738,-3.7766,-3.776,-3.7795,-3.781,-3.7843,-3.7853,-3.7881,-3.7866,-3.7881,-3.7885,-3.7889,-3.7894,-3.7791,-3.7886,-3.7885,-3.7885,-3.7885,-3.7885,0,-3.7679,-3.7687,-3.7713,-3.7739,-3.7761,-3.7745,-3.7764,-3.7784,-3.7816,-3.7831,-3.7854,-3.789,-3.7919,-3.7926,-3.7953,-3.7975,-3.7969,-3.7982,-3.7981,-3.7984,-3.7905,-3.7894,-3.7986,-3.7986,-3.7986,-3.7986,-3.7986,-3.7986,-3.773,-3.7775,-3.7774,-3.7825,-3.7833,-3.7868,-3.788,-3.7896,-3.7908,-3.795,-3.7973,-3.7977,-3.799,-3.8018,-3.8044,-3.8046,-3.8057,-3.8074,-3.8073,-3.7999,-3.7989,-3.7979,-3.7969,-3.8076,-3.8076,-3.8149,-3.815,-3.815]}]]